Location: Unspecified
(0.0000°N, 0.0000°E)
Time: 07:11:46
(UTC+00:00)

Explorer 11/Cluster Stage 4 - Visible Passes

Search period start: 26 September 2017 00:00
Search period end: 06 October 2017 00:00
Orbit: 467 x 1262 km, 28.8° (Epoch: 25 September)

Date Brightness Start Highest point End Pass type
(mag) Time Alt. Az. Time Alt. Az. Time Alt. Az.
04 Oct 9.1 19:14:39 10° S 19:17:10 12° SSE 19:18:54 11° SSE visible
05 Oct 9.0 19:03:14 10° SSW 19:07:09 15° SSE 19:09:31 12° SE visible
05 Oct 9.5 20:50:36 10° SW 20:51:43 14° SW 20:51:43 14° SW visible
